HST
1 20580U 90037B   24182.53355762  .00007023  00000-0  32731-3 0  9998
2 20580  28.4678 255.7011 0002749 171.4338 188.6302 15.17927141679066
ISS (ZARYA)
1 25544U 98067A   24183.27740014  .00017591  00000-0  32088-3 0  9990
2 25544  51.6376 245.5033 0009371  18.4491  94.9116 15.49481735460736
CXO
1 25867U 99040B   24183.72926980  .00000284  00000-0  00000+0 0  9994
2 25867  41.4575 152.4943 8880247 297.3494   0.2694  0.37811031 25775